Year,Month,Day,Hour,Minute,Value (Times are PST for temperature in C)
2010,07,14,00,00,13.90
2010,07,14,00,01,13.80
2010,07,14,00,02,13.80
2010,07,14,00,03,13.80
2010,07,14,00,04,13.80
2010,07,14,00,05,13.80
2010,07,14,00,06,13.80
2010,07,14,00,07,13.70
2010,07,14,00,08,13.70
2010,07,14,00,09,13.70
2010,07,14,00,10,13.70
2010,07,14,00,11,13.70
2010,07,14,00,12,13.70
2010,07,14,00,13,13.70
2010,07,14,00,14,13.70
2010,07,14,00,15,13.70
2010,07,14,00,16,13.70
2010,07,14,00,17,13.70
2010,07,14,00,18,13.70
2010,07,14,00,19,13.70
2010,07,14,00,20,13.70
2010,07,14,00,21,13.70
2010,07,14,00,22,13.70
2010,07,14,00,23,13.70
2010,07,14,00,24,13.70
2010,07,14,00,25,13.80
2010,07,14,00,26,13.80
2010,07,14,00,27,13.80
2010,07,14,00,28,13.90
2010,07,14,00,29,13.90
2010,07,14,00,30,13.90
2010,07,14,00,31,13.90
2010,07,14,00,32,13.90
2010,07,14,00,33,14.00
2010,07,14,00,34,14.00
2010,07,14,00,35,14.00
2010,07,14,00,36,14.10
2010,07,14,00,37,14.10
2010,07,14,00,38,14.10
2010,07,14,00,39,14.20
2010,07,14,00,40,14.20
2010,07,14,00,41,14.20
2010,07,14,00,42,14.20
2010,07,14,00,43,14.20
2010,07,14,00,44,14.20
2010,07,14,00,45,14.20
2010,07,14,00,46,14.20
2010,07,14,00,47,14.20
2010,07,14,00,48,14.20
2010,07,14,00,49,14.20
2010,07,14,00,50,14.10
2010,07,14,00,51,14.10
2010,07,14,00,52,14.10
2010,07,14,00,53,14.00
2010,07,14,00,54,14.00
2010,07,14,00,55,14.00
2010,07,14,00,56,14.00
2010,07,14,00,57,13.90
2010,07,14,00,58,13.90
2010,07,14,00,59,13.90
2010,07,14,01,00,13.90
2010,07,14,01,01,13.90
2010,07,14,01,02,13.90
2010,07,14,01,03,13.90
2010,07,14,01,04,13.90
2010,07,14,01,05,13.90
2010,07,14,01,06,13.90
2010,07,14,01,07,13.90
2010,07,14,01,08,13.90
2010,07,14,01,09,13.90
2010,07,14,01,10,13.80
2010,07,14,01,11,13.80
2010,07,14,01,12,13.80
2010,07,14,01,13,13.70
2010,07,14,01,14,13.70
2010,07,14,01,15,13.70
2010,07,14,01,16,13.70
2010,07,14,01,17,13.70
2010,07,14,01,18,13.70
2010,07,14,01,19,13.60
2010,07,14,01,20,13.60
2010,07,14,01,21,13.60
2010,07,14,01,22,13.60
2010,07,14,01,23,13.50
2010,07,14,01,24,13.50
2010,07,14,01,25,13.50
2010,07,14,01,26,13.50
2010,07,14,01,27,13.50
2010,07,14,01,28,13.40
2010,07,14,01,29,13.40
2010,07,14,01,30,13.40
2010,07,14,01,31,13.40
2010,07,14,01,32,13.40
2010,07,14,01,33,13.40
2010,07,14,01,34,13.40
2010,07,14,01,35,13.30
2010,07,14,01,36,13.30
2010,07,14,01,37,13.30
2010,07,14,01,38,13.30
2010,07,14,01,39,13.30
2010,07,14,01,40,13.30
2010,07,14,01,41,13.30
2010,07,14,01,42,13.30
2010,07,14,01,43,13.30
2010,07,14,01,44,13.30
2010,07,14,01,45,13.30
2010,07,14,01,46,13.30
2010,07,14,01,47,13.20
2010,07,14,01,48,13.20
2010,07,14,01,49,13.20
2010,07,14,01,50,13.20
2010,07,14,01,51,13.20
2010,07,14,01,52,13.10
2010,07,14,01,53,13.10
2010,07,14,01,54,13.10
2010,07,14,01,55,13.10
2010,07,14,01,56,13.10
2010,07,14,01,57,13.00
2010,07,14,01,58,13.00
2010,07,14,01,59,13.00
2010,07,14,02,00,13.00
2010,07,14,02,01,13.00
2010,07,14,02,02,12.90
2010,07,14,02,03,12.90
2010,07,14,02,04,12.90
2010,07,14,02,05,12.90
2010,07,14,02,06,12.90
2010,07,14,02,07,12.90
2010,07,14,02,08,12.90
2010,07,14,02,09,12.90
2010,07,14,02,10,12.80
2010,07,14,02,11,12.80
2010,07,14,02,12,12.80
2010,07,14,02,13,12.80
2010,07,14,02,14,12.80
2010,07,14,02,15,12.80
2010,07,14,02,16,12.80
2010,07,14,02,17,12.80
2010,07,14,02,18,12.80
2010,07,14,02,19,12.70
2010,07,14,02,20,12.70
2010,07,14,02,21,12.70
2010,07,14,02,22,12.70
2010,07,14,02,23,12.60
2010,07,14,02,24,12.60
2010,07,14,02,25,12.60
2010,07,14,02,26,12.50
2010,07,14,02,27,12.50
2010,07,14,02,28,12.50
2010,07,14,02,29,12.50
2010,07,14,02,30,12.50
2010,07,14,02,31,12.50
2010,07,14,02,32,12.50
2010,07,14,02,33,12.50
2010,07,14,02,34,12.40
2010,07,14,02,35,12.40
2010,07,14,02,36,12.40
2010,07,14,02,37,12.40
2010,07,14,02,38,12.30
2010,07,14,02,39,12.30
2010,07,14,02,40,12.30
2010,07,14,02,41,12.30
2010,07,14,02,42,12.30
2010,07,14,02,43,12.30
2010,07,14,02,44,12.30
2010,07,14,02,45,12.30
2010,07,14,02,46,12.20
2010,07,14,02,47,12.20
2010,07,14,02,48,12.20
2010,07,14,02,49,12.20
2010,07,14,02,50,12.20
2010,07,14,02,51,12.10
2010,07,14,02,52,12.10
2010,07,14,02,53,12.10
2010,07,14,02,54,12.10
2010,07,14,02,55,12.10
2010,07,14,02,56,12.10
2010,07,14,02,57,12.00
2010,07,14,02,58,12.00
2010,07,14,02,59,12.00
2010,07,14,03,00,12.00
2010,07,14,03,01,12.00
2010,07,14,03,02,11.90
2010,07,14,03,03,11.90
2010,07,14,03,04,11.90
2010,07,14,03,05,11.90
2010,07,14,03,06,11.90
2010,07,14,03,07,11.90
2010,07,14,03,08,11.90
2010,07,14,03,09,11.90
2010,07,14,03,10,11.90
2010,07,14,03,11,11.80
2010,07,14,03,12,11.80
2010,07,14,03,13,11.80
2010,07,14,03,14,11.80
2010,07,14,03,15,11.80
2010,07,14,03,16,11.80
2010,07,14,03,17,11.80
2010,07,14,03,18,11.80
2010,07,14,03,19,11.80
2010,07,14,03,20,11.80
2010,07,14,03,21,11.80
2010,07,14,03,22,11.80
2010,07,14,03,23,11.80
2010,07,14,03,24,11.80
2010,07,14,03,25,11.90
2010,07,14,03,26,11.90
2010,07,14,03,27,12.00
2010,07,14,03,28,12.00
2010,07,14,03,29,12.00
2010,07,14,03,30,12.10
2010,07,14,03,31,12.10
2010,07,14,03,32,12.00
2010,07,14,03,33,12.00
2010,07,14,03,34,12.00
2010,07,14,03,35,12.00
2010,07,14,03,36,12.00
2010,07,14,03,37,12.00
2010,07,14,03,38,12.00
2010,07,14,03,39,11.90
2010,07,14,03,40,11.90
2010,07,14,03,41,11.90
2010,07,14,03,42,11.90
2010,07,14,03,43,11.80
2010,07,14,03,44,11.80
2010,07,14,03,45,11.80
2010,07,14,03,46,11.80
2010,07,14,03,47,11.80
2010,07,14,03,48,11.80
2010,07,14,03,49,11.80
2010,07,14,03,50,11.80
2010,07,14,03,51,11.70
2010,07,14,03,52,11.70
2010,07,14,03,53,11.70
2010,07,14,03,54,11.70
2010,07,14,03,55,11.70
2010,07,14,03,56,11.60
2010,07,14,03,57,11.70
2010,07,14,03,58,11.70
2010,07,14,03,59,11.70
2010,07,14,04,00,11.80
2010,07,14,04,01,11.80
2010,07,14,04,02,11.80
2010,07,14,04,03,11.80
2010,07,14,04,04,11.80
2010,07,14,04,05,11.80
2010,07,14,04,06,11.80
2010,07,14,04,07,11.70
2010,07,14,04,08,11.70
2010,07,14,04,09,11.70
2010,07,14,04,10,11.70
2010,07,14,04,11,11.70
2010,07,14,04,12,11.60
2010,07,14,04,13,11.60
2010,07,14,04,14,11.60
2010,07,14,04,15,11.60
2010,07,14,04,16,11.60
2010,07,14,04,17,11.60
2010,07,14,04,18,11.60
2010,07,14,04,19,11.60
2010,07,14,04,20,11.60
2010,07,14,04,21,11.60
2010,07,14,04,22,11.60
2010,07,14,04,23,11.60
2010,07,14,04,24,11.60
2010,07,14,04,25,11.60
2010,07,14,04,26,11.60
2010,07,14,04,27,11.60
2010,07,14,04,28,11.40
2010,07,14,04,29,11.40
2010,07,14,04,30,11.40
2010,07,14,04,31,11.40
2010,07,14,04,32,11.40
2010,07,14,04,33,11.40
2010,07,14,04,34,11.40
2010,07,14,04,35,11.40
2010,07,14,04,36,11.40
2010,07,14,04,37,11.30
2010,07,14,04,38,11.30
2010,07,14,04,39,11.30
2010,07,14,04,40,11.30
2010,07,14,04,41,11.30
2010,07,14,04,42,11.30
2010,07,14,04,43,11.30
2010,07,14,04,44,11.40
2010,07,14,04,45,11.40
2010,07,14,04,46,11.40
2010,07,14,04,47,11.40
2010,07,14,04,48,11.40
2010,07,14,04,49,11.40
2010,07,14,04,50,11.40
2010,07,14,04,51,11.40
2010,07,14,04,52,11.40
2010,07,14,04,53,11.40
2010,07,14,04,54,11.40
2010,07,14,04,55,11.40
2010,07,14,04,56,11.40
2010,07,14,04,57,11.40
2010,07,14,04,58,11.40
2010,07,14,04,59,11.40
2010,07,14,05,00,11.50
2010,07,14,05,01,11.60
2010,07,14,05,02,11.60
2010,07,14,05,03,11.60
2010,07,14,05,04,11.60
2010,07,14,05,05,11.60
2010,07,14,05,06,11.60
2010,07,14,05,07,11.60
2010,07,14,05,08,11.60
2010,07,14,05,09,11.70
2010,07,14,05,10,11.80
2010,07,14,05,11,11.80
2010,07,14,05,12,11.90
2010,07,14,05,13,11.90
2010,07,14,05,14,11.90
2010,07,14,05,15,11.90
2010,07,14,05,16,11.90
2010,07,14,05,17,11.90
2010,07,14,05,18,11.90
2010,07,14,05,19,11.80
2010,07,14,05,20,11.80
2010,07,14,05,21,11.80
2010,07,14,05,22,11.80
2010,07,14,05,23,11.80
2010,07,14,05,24,11.70
2010,07,14,05,25,11.70
2010,07,14,05,26,11.60
2010,07,14,05,27,11.60
2010,07,14,05,28,11.60
2010,07,14,05,29,11.60
2010,07,14,05,30,11.40
2010,07,14,05,31,11.40
2010,07,14,05,32,11.40
2010,07,14,05,33,11.40
2010,07,14,05,34,11.30
2010,07,14,05,35,11.30
2010,07,14,05,36,11.30
2010,07,14,05,37,11.20
2010,07,14,05,38,11.20
2010,07,14,05,39,11.20
2010,07,14,05,40,11.10
2010,07,14,05,41,11.10
2010,07,14,05,42,11.10
2010,07,14,05,43,11.10
2010,07,14,05,44,11.10
2010,07,14,05,45,11.10
2010,07,14,05,46,11.10
2010,07,14,05,47,11.10
2010,07,14,05,48,11.10
2010,07,14,05,49,11.10
2010,07,14,05,50,11.10
2010,07,14,05,51,11.10
2010,07,14,05,52,11.10
2010,07,14,05,53,11.10
2010,07,14,05,54,11.10
2010,07,14,05,55,11.20
2010,07,14,05,56,11.20
2010,07,14,05,57,11.20
2010,07,14,05,58,11.30
2010,07,14,05,59,11.30
2010,07,14,06,00,11.40
2010,07,14,06,01,11.40
2010,07,14,06,02,11.40
2010,07,14,06,03,11.40
2010,07,14,06,04,11.50
2010,07,14,06,05,11.60
2010,07,14,06,06,11.60
2010,07,14,06,07,11.60
2010,07,14,06,08,11.60
2010,07,14,06,09,11.60
2010,07,14,06,10,11.70
2010,07,14,06,11,11.70
2010,07,14,06,12,11.70
2010,07,14,06,13,11.80
2010,07,14,06,14,11.80
2010,07,14,06,15,11.80
2010,07,14,06,16,11.80
2010,07,14,06,17,11.90
2010,07,14,06,18,11.90
2010,07,14,06,19,11.90
2010,07,14,06,20,12.00
2010,07,14,06,21,12.00
2010,07,14,06,22,12.00
2010,07,14,06,23,12.10
2010,07,14,06,24,12.20
2010,07,14,06,25,12.20
2010,07,14,06,26,12.20
2010,07,14,06,27,12.30
2010,07,14,06,28,12.30
2010,07,14,06,29,12.40
2010,07,14,06,30,12.40
2010,07,14,06,31,12.50
2010,07,14,06,32,12.50
2010,07,14,06,33,12.60
2010,07,14,06,34,12.60
2010,07,14,06,35,12.70
2010,07,14,06,36,12.70
2010,07,14,06,37,12.80
2010,07,14,06,38,12.80
2010,07,14,06,39,12.90
2010,07,14,06,40,12.90
2010,07,14,06,41,12.90
2010,07,14,06,42,13.00
2010,07,14,06,43,13.00
2010,07,14,06,44,13.00
2010,07,14,06,45,13.10
2010,07,14,06,46,13.20
2010,07,14,06,47,13.20
2010,07,14,06,48,13.20
2010,07,14,06,49,13.20
2010,07,14,06,50,13.30
2010,07,14,06,51,13.30
2010,07,14,06,52,13.30
2010,07,14,06,53,13.30
2010,07,14,06,54,13.30
2010,07,14,06,55,13.30
2010,07,14,06,56,13.40
2010,07,14,06,57,13.40
2010,07,14,06,58,13.40
2010,07,14,06,59,13.50
2010,07,14,07,00,13.50
2010,07,14,07,01,13.60
2010,07,14,07,02,13.60
2010,07,14,07,03,13.60
2010,07,14,07,04,13.70
2010,07,14,07,05,13.70
2010,07,14,07,06,13.70
2010,07,14,07,07,13.80
2010,07,14,07,08,13.90
2010,07,14,07,09,14.00
2010,07,14,07,10,14.00
2010,07,14,07,11,14.10
2010,07,14,07,12,14.20
2010,07,14,07,13,14.20
2010,07,14,07,14,14.20
2010,07,14,07,15,14.20
2010,07,14,07,16,14.20
2010,07,14,07,17,14.20
2010,07,14,07,18,14.20
2010,07,14,07,19,14.20
2010,07,14,07,20,14.20
2010,07,14,07,21,14.20
2010,07,14,07,22,14.30
2010,07,14,07,23,14.30
2010,07,14,07,24,14.20
2010,07,14,07,25,14.20
2010,07,14,07,26,14.20
2010,07,14,07,27,14.20
2010,07,14,07,28,14.20
2010,07,14,07,29,14.20
2010,07,14,07,30,14.10
2010,07,14,07,31,14.10
2010,07,14,07,32,14.10
2010,07,14,07,33,14.10
2010,07,14,07,34,14.00
2010,07,14,07,35,14.10
2010,07,14,07,36,14.10
2010,07,14,07,37,14.20
2010,07,14,07,38,14.20
2010,07,14,07,39,14.20
2010,07,14,07,40,14.20
2010,07,14,07,41,14.20
2010,07,14,07,42,14.20
2010,07,14,07,43,14.20
2010,07,14,07,44,14.20
2010,07,14,07,45,14.10
2010,07,14,07,46,14.10
2010,07,14,07,47,14.10
2010,07,14,07,48,14.10
2010,07,14,07,49,14.20
2010,07,14,07,50,14.20
2010,07,14,07,51,14.20
2010,07,14,07,52,14.20
2010,07,14,07,53,14.20
2010,07,14,07,54,14.20
2010,07,14,07,55,14.20
2010,07,14,07,56,14.20
2010,07,14,07,57,14.20
2010,07,14,07,58,14.20
2010,07,14,07,59,14.20
2010,07,14,08,00,14.30
2010,07,14,08,01,14.30
2010,07,14,08,02,14.30
2010,07,14,08,03,14.40
2010,07,14,08,04,14.40
2010,07,14,08,05,14.40
2010,07,14,08,06,14.40
2010,07,14,08,07,14.30
2010,07,14,08,08,14.30
2010,07,14,08,09,14.20
2010,07,14,08,10,14.20
2010,07,14,08,11,14.20
2010,07,14,08,12,14.20
2010,07,14,08,13,14.20
2010,07,14,08,14,14.20
2010,07,14,08,15,14.20
2010,07,14,08,16,14.20
2010,07,14,08,17,14.30
2010,07,14,08,18,14.30
2010,07,14,08,19,14.40
2010,07,14,08,20,14.50
2010,07,14,08,21,14.60
2010,07,14,08,22,14.80
2010,07,14,08,23,14.80
2010,07,14,08,24,14.90
2010,07,14,08,25,14.90
2010,07,14,08,26,14.90
2010,07,14,08,27,15.00
2010,07,14,08,28,15.00
2010,07,14,08,29,15.00
2010,07,14,08,30,15.10
2010,07,14,08,31,15.20
2010,07,14,08,32,15.20
2010,07,14,08,33,15.20
2010,07,14,08,34,15.20
2010,07,14,08,35,15.30
2010,07,14,08,36,15.30
2010,07,14,08,37,15.30
2010,07,14,08,38,15.30
2010,07,14,08,39,15.30
2010,07,14,08,40,15.30
2010,07,14,08,41,15.30
2010,07,14,08,42,15.20
2010,07,14,08,43,15.20
2010,07,14,08,44,15.20
2010,07,14,08,45,15.20
2010,07,14,08,46,15.20
2010,07,14,08,47,15.30
2010,07,14,08,48,15.20
2010,07,14,08,49,15.20
2010,07,14,08,50,15.20
2010,07,14,08,51,15.00
2010,07,14,08,52,14.90
2010,07,14,08,53,14.70
2010,07,14,08,54,14.60
2010,07,14,08,55,14.50
2010,07,14,08,56,14.40
2010,07,14,08,57,14.40
2010,07,14,08,58,14.40
2010,07,14,08,59,14.40
2010,07,14,09,00,14.40
2010,07,14,09,01,14.30
2010,07,14,09,02,14.30
2010,07,14,09,03,14.40
2010,07,14,09,04,14.50
2010,07,14,09,05,14.60
2010,07,14,09,06,14.80
2010,07,14,09,07,14.90
2010,07,14,09,08,14.90
2010,07,14,09,09,15.00
2010,07,14,09,10,15.10
2010,07,14,09,11,15.20
2010,07,14,09,12,15.30
2010,07,14,09,13,15.30
2010,07,14,09,14,15.30
2010,07,14,09,15,15.30
2010,07,14,09,16,15.20
2010,07,14,09,17,15.20
2010,07,14,09,18,15.20
2010,07,14,09,19,15.30
2010,07,14,09,20,15.30
2010,07,14,09,21,15.30
2010,07,14,09,22,15.20
2010,07,14,09,23,15.20
2010,07,14,09,24,15.20
2010,07,14,09,25,15.20
2010,07,14,09,26,15.30
2010,07,14,09,27,15.30
2010,07,14,09,28,15.30
2010,07,14,09,29,15.30
2010,07,14,09,30,15.20
2010,07,14,09,31,15.10
2010,07,14,09,32,15.10
2010,07,14,09,33,15.00
2010,07,14,09,34,15.00
2010,07,14,09,35,15.10
2010,07,14,09,36,15.10
2010,07,14,09,37,15.10
2010,07,14,09,38,15.10
2010,07,14,09,39,15.10
2010,07,14,09,40,15.30
2010,07,14,09,41,15.40
2010,07,14,09,42,15.50
2010,07,14,09,43,15.60
2010,07,14,09,44,15.60
2010,07,14,09,45,15.50
2010,07,14,09,46,15.30
2010,07,14,09,47,15.20
2010,07,14,09,48,15.00
2010,07,14,09,49,15.00
2010,07,14,09,50,14.90
2010,07,14,09,51,14.70
2010,07,14,09,52,14.60
2010,07,14,09,53,14.60
2010,07,14,09,54,14.50
2010,07,14,09,55,14.40
2010,07,14,09,56,14.20
2010,07,14,09,57,14.10
2010,07,14,09,58,14.10
2010,07,14,09,59,14.20
2010,07,14,10,00,14.20
2010,07,14,10,01,14.20
2010,07,14,10,02,14.40
2010,07,14,10,03,14.60
2010,07,14,10,04,14.80
2010,07,14,10,05,15.00
2010,07,14,10,06,15.10
2010,07,14,10,07,15.20
2010,07,14,10,08,15.30
2010,07,14,10,09,15.30
2010,07,14,10,10,15.40
2010,07,14,10,11,15.60
2010,07,14,10,12,15.60
2010,07,14,10,13,15.80
2010,07,14,10,14,15.90
2010,07,14,10,15,15.90
2010,07,14,10,16,16.00
2010,07,14,10,17,16.10
2010,07,14,10,18,16.10
2010,07,14,10,19,16.00
2010,07,14,10,20,15.90
2010,07,14,10,21,15.80
2010,07,14,10,22,15.80
2010,07,14,10,23,15.90
2010,07,14,10,24,15.90
2010,07,14,10,25,16.10
2010,07,14,10,26,16.20
2010,07,14,10,27,16.10
2010,07,14,10,28,16.10
2010,07,14,10,29,16.10
2010,07,14,10,30,16.00
2010,07,14,10,31,15.80
2010,07,14,10,32,15.80
2010,07,14,10,33,15.80
2010,07,14,10,34,15.80
2010,07,14,10,35,15.90
2010,07,14,10,36,16.00
2010,07,14,10,37,16.10
2010,07,14,10,38,16.20
2010,07,14,10,39,16.10
2010,07,14,10,40,16.10
2010,07,14,10,41,16.00
2010,07,14,10,42,16.00
2010,07,14,10,43,15.90
2010,07,14,10,44,16.00
2010,07,14,10,45,16.10
2010,07,14,10,46,16.10
2010,07,14,10,47,16.10
2010,07,14,10,48,16.10
2010,07,14,10,49,16.10
2010,07,14,10,50,16.10
2010,07,14,10,51,16.10
2010,07,14,10,52,16.10
2010,07,14,10,53,16.00
2010,07,14,10,54,16.00
2010,07,14,10,55,16.10
2010,07,14,10,56,16.10
2010,07,14,10,57,16.10
2010,07,14,10,58,16.10
2010,07,14,10,59,16.10
2010,07,14,11,00,15.90
2010,07,14,11,01,15.90
2010,07,14,11,02,15.80
2010,07,14,11,03,15.80
2010,07,14,11,04,15.90
2010,07,14,11,05,16.10
2010,07,14,11,06,16.20
2010,07,14,11,07,16.30
2010,07,14,11,08,16.40
2010,07,14,11,09,16.50
2010,07,14,11,10,16.70
2010,07,14,11,11,16.60
2010,07,14,11,12,16.50
2010,07,14,11,13,16.40
2010,07,14,11,14,16.30
2010,07,14,11,15,16.30
2010,07,14,11,16,16.30
2010,07,14,11,17,16.20
2010,07,14,11,18,16.20
2010,07,14,11,19,16.10
2010,07,14,11,20,16.10
2010,07,14,11,21,16.10
2010,07,14,11,22,16.30
2010,07,14,11,23,16.40
2010,07,14,11,24,16.50
2010,07,14,11,25,16.60
2010,07,14,11,26,16.70
2010,07,14,11,27,16.70
2010,07,14,11,28,16.90
2010,07,14,11,29,16.90
2010,07,14,11,30,16.90
2010,07,14,11,31,16.80
2010,07,14,11,32,16.80
2010,07,14,11,33,16.80
2010,07,14,11,34,16.80
2010,07,14,11,35,16.90
2010,07,14,11,36,16.90
2010,07,14,11,37,17.10
2010,07,14,11,38,17.20
2010,07,14,11,39,17.20
2010,07,14,11,40,17.10
2010,07,14,11,41,17.00
2010,07,14,11,42,17.00
2010,07,14,11,43,17.00
2010,07,14,11,44,17.00
2010,07,14,11,45,17.00
2010,07,14,11,46,17.10
2010,07,14,11,47,17.30
2010,07,14,11,48,17.30
2010,07,14,11,49,17.40
2010,07,14,11,50,17.50
2010,07,14,11,51,17.50
2010,07,14,11,52,17.40
2010,07,14,11,53,17.30
2010,07,14,11,54,17.10
2010,07,14,11,55,16.90
2010,07,14,11,56,16.70
2010,07,14,11,57,16.70
2010,07,14,11,58,16.70
2010,07,14,11,59,16.70
2010,07,14,12,00,16.90
2010,07,14,12,01,17.00
2010,07,14,12,02,17.00
2010,07,14,12,03,16.90
2010,07,14,12,04,16.90
2010,07,14,12,05,16.80
2010,07,14,12,14,16.60
2010,07,14,12,15,16.50
2010,07,14,12,16,16.40
2010,07,14,12,17,16.40
2010,07,14,12,18,16.50
2010,07,14,12,19,16.60
2010,07,14,12,20,16.60
2010,07,14,12,21,16.50
2010,07,14,12,22,16.40
2010,07,14,12,23,16.40
2010,07,14,12,24,16.40
2010,07,14,12,25,16.40
2010,07,14,12,26,16.50
2010,07,14,12,27,16.60
2010,07,14,12,28,16.70
2010,07,14,12,29,16.70
2010,07,14,12,30,16.80
2010,07,14,12,31,16.70
2010,07,14,12,32,16.70
2010,07,14,12,33,16.70
2010,07,14,12,34,16.60
2010,07,14,12,35,16.50
2010,07,14,12,36,16.40
2010,07,14,12,37,16.40
2010,07,14,12,38,16.50
2010,07,14,12,39,16.60
2010,07,14,12,40,16.60
2010,07,14,12,41,16.60
2010,07,14,12,42,16.70
2010,07,14,12,43,16.70
2010,07,14,12,44,17.00
2010,07,14,12,45,17.20
2010,07,14,12,46,17.20
2010,07,14,12,47,17.20
2010,07,14,12,48,17.30
2010,07,14,12,49,17.40
2010,07,14,12,50,17.50
2010,07,14,12,51,17.60
2010,07,14,12,52,17.60
2010,07,14,12,53,17.60
2010,07,14,12,54,17.50
2010,07,14,12,55,17.50
2010,07,14,12,56,17.50
2010,07,14,12,57,17.60
2010,07,14,12,58,17.70
2010,07,14,12,59,17.60
2010,07,14,13,00,17.50
2010,07,14,13,01,17.50
2010,07,14,13,02,17.50
2010,07,14,13,03,17.50
2010,07,14,13,04,17.50
2010,07,14,13,05,17.40
2010,07,14,13,06,17.50
2010,07,14,13,07,17.60
2010,07,14,13,08,17.50
2010,07,14,13,09,17.30
2010,07,14,13,10,17.30
2010,07,14,13,11,17.30
2010,07,14,13,12,17.40
2010,07,14,13,13,17.40
2010,07,14,13,14,17.50
2010,07,14,13,15,17.50
2010,07,14,13,16,17.60
2010,07,14,13,17,17.50
2010,07,14,13,18,17.40
2010,07,14,13,19,17.30
2010,07,14,13,20,17.30
2010,07,14,13,21,17.30
2010,07,14,13,22,17.30
2010,07,14,13,23,17.40
2010,07,14,13,24,17.60
2010,07,14,13,25,17.80
2010,07,14,13,26,17.90
2010,07,14,13,27,18.00
2010,07,14,13,28,18.10
2010,07,14,13,29,18.20
2010,07,14,13,30,18.20
2010,07,14,13,31,18.20
2010,07,14,13,32,18.20
2010,07,14,13,33,18.20
2010,07,14,13,34,18.20
2010,07,14,13,35,18.20
2010,07,14,13,36,18.20
2010,07,14,13,37,18.10
2010,07,14,13,38,18.10
2010,07,14,13,39,18.00
2010,07,14,13,40,17.80
2010,07,14,13,41,17.80
2010,07,14,13,42,17.90
2010,07,14,13,43,17.90
2010,07,14,13,44,17.90
2010,07,14,13,45,17.80
2010,07,14,13,46,17.70
2010,07,14,13,47,17.70
2010,07,14,13,48,17.70
2010,07,14,13,49,17.70
2010,07,14,13,50,17.70
2010,07,14,13,51,17.70
2010,07,14,13,52,17.80
2010,07,14,13,53,17.80
2010,07,14,13,54,17.90
2010,07,14,13,55,18.00
2010,07,14,13,56,18.10
2010,07,14,13,57,18.40
2010,07,14,13,58,18.50
2010,07,14,13,59,18.60
2010,07,14,14,00,18.60
2010,07,14,14,01,18.70
2010,07,14,14,02,18.70
2010,07,14,14,03,18.80
2010,07,14,14,04,18.90
2010,07,14,14,05,19.10
2010,07,14,14,06,19.20
2010,07,14,14,07,19.20
2010,07,14,14,08,19.30
2010,07,14,14,09,19.30
2010,07,14,14,10,19.30
2010,07,14,14,11,19.40
2010,07,14,14,12,19.50
2010,07,14,14,13,19.60
2010,07,14,14,14,19.70
2010,07,14,14,15,19.70
2010,07,14,14,16,19.70
2010,07,14,14,17,19.70
2010,07,14,14,18,19.50
2010,07,14,14,19,19.40
2010,07,14,14,20,19.30
2010,07,14,14,21,19.20
2010,07,14,14,22,19.30
2010,07,14,14,23,19.40
2010,07,14,14,24,19.40
2010,07,14,14,25,19.30
2010,07,14,14,26,19.20
2010,07,14,14,27,19.20
2010,07,14,14,28,19.20
2010,07,14,14,29,19.10
2010,07,14,14,30,19.00
2010,07,14,14,31,18.90
2010,07,14,14,32,18.90
2010,07,14,14,33,18.90
2010,07,14,14,34,18.90
2010,07,14,14,35,18.90
2010,07,14,14,36,19.00
2010,07,14,14,37,19.10
2010,07,14,14,38,19.20
2010,07,14,14,39,19.20
2010,07,14,14,40,19.30
2010,07,14,14,41,19.30
2010,07,14,14,42,19.20
2010,07,14,14,43,19.30
2010,07,14,14,44,19.10
2010,07,14,14,45,19.10
2010,07,14,14,46,19.20
2010,07,14,14,47,19.20
2010,07,14,14,48,19.40
2010,07,14,14,49,19.50
2010,07,14,14,50,19.70
2010,07,14,14,51,19.70
2010,07,14,14,52,19.70
2010,07,14,14,53,19.70
2010,07,14,14,54,19.70
2010,07,14,14,55,19.80
2010,07,14,14,56,19.80
2010,07,14,14,57,19.70
2010,07,14,14,58,19.70
2010,07,14,14,59,19.80
2010,07,14,15,00,19.80
2010,07,14,15,01,19.80
2010,07,14,15,02,19.80
2010,07,14,15,03,19.80
2010,07,14,15,04,19.70
2010,07,14,15,05,19.70
2010,07,14,15,06,19.70
2010,07,14,15,07,19.60
2010,07,14,15,08,19.50
2010,07,14,15,09,19.50
2010,07,14,15,10,19.40
2010,07,14,15,11,19.40
2010,07,14,15,12,19.40
2010,07,14,15,13,19.30
2010,07,14,15,14,19.40
2010,07,14,15,15,19.50
2010,07,14,15,16,19.60
2010,07,14,15,17,19.70
2010,07,14,15,18,19.60
2010,07,14,15,19,19.60
2010,07,14,15,20,19.50
2010,07,14,15,21,19.50
2010,07,14,15,22,19.50
2010,07,14,15,23,19.50
2010,07,14,15,24,19.50
2010,07,14,15,25,19.50
2010,07,14,15,26,19.50
2010,07,14,15,27,19.50
2010,07,14,15,28,19.50
2010,07,14,15,29,19.50
2010,07,14,15,30,19.50
2010,07,14,15,31,19.60
2010,07,14,15,32,19.60
2010,07,14,15,33,19.50
2010,07,14,15,34,19.40
2010,07,14,15,35,19.30
2010,07,14,15,36,19.30
2010,07,14,15,37,19.50
2010,07,14,15,38,19.60
2010,07,14,15,39,19.70
2010,07,14,15,40,19.80
2010,07,14,15,41,19.90
2010,07,14,15,42,19.90
2010,07,14,15,43,19.90
2010,07,14,15,44,20.00
2010,07,14,15,45,20.00
2010,07,14,15,46,19.90
2010,07,14,15,47,19.90
2010,07,14,15,48,19.90
2010,07,14,15,49,20.00
2010,07,14,15,50,20.20
2010,07,14,15,51,20.20
2010,07,14,15,52,20.00
2010,07,14,15,53,19.80
2010,07,14,15,54,19.60
2010,07,14,15,55,19.50
2010,07,14,15,56,19.50
2010,07,14,15,57,19.40
2010,07,14,15,58,19.40
2010,07,14,15,59,19.30
2010,07,14,16,00,19.10
2010,07,14,16,01,19.20
2010,07,14,16,02,19.20
2010,07,14,16,03,19.20
2010,07,14,16,04,19.20
2010,07,14,16,05,19.20
2010,07,14,16,06,19.20
2010,07,14,16,07,19.40
2010,07,14,16,08,19.60
2010,07,14,16,09,19.80
2010,07,14,16,10,19.80
2010,07,14,16,11,19.90
2010,07,14,16,12,20.00
2010,07,14,16,13,19.90
2010,07,14,16,14,19.80
2010,07,14,16,15,19.80
2010,07,14,16,16,19.80
2010,07,14,16,17,19.90
2010,07,14,16,18,20.10
2010,07,14,16,19,20.20
2010,07,14,16,20,20.10
2010,07,14,16,21,20.00
2010,07,14,16,22,19.90
2010,07,14,16,23,19.90
2010,07,14,16,24,19.90
2010,07,14,16,25,19.90
2010,07,14,16,26,19.90
2010,07,14,16,27,19.90
2010,07,14,16,28,19.80
2010,07,14,16,29,19.70
2010,07,14,16,30,19.70
2010,07,14,16,31,19.60
2010,07,14,16,32,19.50
2010,07,14,16,33,19.50
2010,07,14,16,34,19.60
2010,07,14,16,35,19.60
2010,07,14,16,36,19.60
2010,07,14,16,37,19.80
2010,07,14,16,38,19.90
2010,07,14,16,39,20.10
2010,07,14,16,40,20.20
2010,07,14,16,41,20.20
2010,07,14,16,42,20.20
2010,07,14,16,43,20.30
2010,07,14,16,44,20.50
2010,07,14,16,45,20.50
2010,07,14,16,46,20.60
2010,07,14,16,47,20.60
2010,07,14,16,48,20.50
2010,07,14,16,49,20.60
2010,07,14,16,50,20.60
2010,07,14,16,51,20.60
2010,07,14,16,52,20.50
2010,07,14,16,53,20.40
2010,07,14,16,54,20.40
2010,07,14,16,55,20.30
2010,07,14,16,56,20.20
2010,07,14,16,57,20.20
2010,07,14,16,58,20.20
2010,07,14,16,59,20.30
2010,07,14,17,00,20.30
2010,07,14,17,01,20.30
2010,07,14,17,02,20.40
2010,07,14,17,03,20.50
2010,07,14,17,04,20.60
2010,07,14,17,05,20.60
2010,07,14,17,06,20.60
2010,07,14,17,07,20.50
2010,07,14,17,08,20.50
2010,07,14,17,09,20.40
2010,07,14,17,10,20.50
2010,07,14,17,11,20.40
2010,07,14,17,12,20.30
2010,07,14,17,13,20.30
2010,07,14,17,14,20.20
2010,07,14,17,15,20.20
2010,07,14,17,16,20.10
2010,07,14,17,17,20.10
2010,07,14,17,18,20.10
2010,07,14,17,19,20.20
2010,07,14,17,20,20.20
2010,07,14,17,21,20.20
2010,07,14,17,22,20.20
2010,07,14,17,23,20.20
2010,07,14,17,24,20.30
2010,07,14,17,25,20.30
2010,07,14,17,26,20.20
2010,07,14,17,27,20.20